#timestamp,LO_Frequency,Hit 
1501632015.1,286047093.5,N
1501632016.0,286047093.5,N
1501632035.8,286047091.6,N
1501632055.6,286047089.4,N
1501632075.5,286047092.2,N
1501632095.3,286047093.7,N
1501632115.1,286047093.9,N
1501632135.8,286047092.2,N
1501632155.7,286047091.9,N
1501632175.5,286047094.0,N
1501632195.3,286047091.8,N
1501632215.2,286047091.8,N
1501632235.9,286047089.5,N
1501632255.7,286047092.2,N
1501632275.6,286047092.1,N
1501632295.4,286047092.2,N
1501632315.2,286047092.4,N
1501632335.1,286047090.4,N
1501632336.0,286047090.4,N
1501632355.8,286047088.1,N
1501632375.6,286047088.3,N
1501632395.4,286047088.1,N
1501632415.3,286047088.2,N
1501632435.1,286047087.3,N
1501632455.8,286047086.3,N
1501632475.7,286047087.0,N
1501632495.5,286047087.0,N
1501632515.3,286047086.8,N
1501632535.2,286047086.1,N
1501632555.9,286047086.7,N
1501632575.7,286047086.8,N
1501632595.6,286047087.2,N
1501632615.4,286047086.8,N
1501632635.2,286047087.1,N
1501632655.0,286047086.5,N
1501632656.0,286047086.5,N
1501632675.8,286047089.0,N
1501632695.6,286047089.2,N
1501632715.4,286047086.4,N
1501632735.3,286047084.6,N
1501632755.1,286047085.8,N
1501632775.8,286047082.6,N
1501632795.7,286047081.4,N
1501632815.5,286047080.2,N
1501632835.3,286047082.3,N
1501632855.2,286047081.3,N
1501632875.9,286047082.3,N
1501632895.7,286047079.7,N
1501632915.6,286047080.9,N
1501632935.4,286047082.6,N
1501632955.2,286047083.4,N
1501632975.0,286047084.8,N
1501632975.9,286047084.8,N
1501632995.8,286047083.4,N
1501633015.6,286047083.0,N
1501633035.4,286047083.6,N
1501633055.3,286047081.8,N
1501633075.1,286047083.7,N
1501633095.8,286047082.3,N
1501633115.7,286047082.6,N
1501633135.5,286047083.6,N
1501633155.3,286047081.4,N
1501633175.2,286047082.2,N
1501633195.9,286047081.5,N
1501633215.7,286047080.4,N
1501633235.5,286047079.7,N
1501633255.4,286047082.1,N
1501633275.2,286047081.8,N
1501633295.0,286047082.2,N
1501633295.9,286047082.2,N
1501633315.8,286047084.3,N
1501633335.6,286047081.1,N
1501633355.4,286047082.7,N
1501633375.3,286047081.8,N
1501633395.1,286047082.5,N
1501633396.0,286047082.5,N
1501633415.8,286047080.4,N
1501633435.7,286047080.5,N
1501633455.5,286047081.1,N
1501633475.3,286047082.7,N
1501633495.1,286047080.6,N
1501633515.9,286047080.2,N
1501633535.7,286047082.0,N
1501633555.5,286047082.6,N
1501633575.4,286047083.2,N
1501633595.2,286047083.9,N
1501633615.0,286047083.2,N
1501633615.9,286047083.2,N
1501633635.8,286047083.5,N
1501633655.6,286047085.4,N
1501633675.4,286047085.8,N
1501633695.3,286047083.4,N
1501633715.1,286047080.0,N
1501633716.0,286047080.0,N
1501633735.8,286047081.8,N
1501633755.7,286047084.3,N
1501633775.5,286047082.9,N
1501633795.3,286047085.5,N
1501633815.1,286047082.7,N
1501633835.9,286047082.8,N
1501633855.7,286047084.4,N
1501633875.5,286047083.9,N
1501633895.4,286047082.5,N
1501633915.2,286047083.5,N
1501633935.0,286047083.6,N
1501633935.9,286047083.6,N
1501633955.8,286047082.3,N
1501633975.6,286047082.6,N
1501633995.4,286047082.2,N
1501634015.3,286047082.8,N
1501634035.1,286047080.9,N
1501634036.0,286047080.9,N
1501634055.8,286047078.8,N
1501634075.6,286047078.4,N
1501634095.5,286047076.5,N
1501634115.3,286047079.2,N
1501634135.1,286047077.5,N
1501634155.9,286047075.4,N
1501634175.7,286047076.0,N
1501634195.5,286047075.4,N
1501634215.4,286047075.7,N
1501634235.2,286047073.7,N
1501634255.0,286047072.3,N
1501634255.9,286047072.3,N
1501634275.8,286047074.0,N
1501634295.6,286047076.4,N
1501634315.4,286047074.6,N
1501634335.2,286047075.8,N
1501634355.1,286047076.2,N
1501634356.0,286047076.2,N
1501634375.8,286047074.2,N
1501634395.6,286047074.6,N
1501634415.5,286047076.4,N
1501634435.3,286047071.9,N
1501634455.1,286047072.0,N
1501634475.9,286047071.9,N
1501634495.7,286047073.1,N
1501634515.5,286047071.0,N
1501634535.4,286047071.6,N
1501634555.2,286047070.7,N
1501634575.0,286047072.1,N
1501634575.9,286047072.1,N
1501634595.7,286047073.5,N
1501634615.6,286047072.2,N
1501634635.4,286047073.6,N
1501634655.2,286047073.9,N
1501634675.1,286047075.3,N
1501634676.0,286047075.3,N
1501634695.8,286047073.3,N
1501634715.6,286047072.3,N
1501634735.5,286047074.6,N
1501634755.3,286047074.2,N
1501634775.1,286047073.3,N
1501634795.9,286047072.9,N
1501634815.7,286047072.9,N
1501634835.5,286047072.9,N
1501634855.4,286047068.9,N
1501634875.2,286047068.0,N
1501634895.0,286047068.6,N
1501634895.9,286047068.6,N
1501634915.8,286047070.1,N
1501634935.6,286047073.0,N
1501634955.4,286047071.9,N
1501634975.2,286047072.0,N
1501634995.1,286047068.5,N
1501634996.0,286047068.5,N
1501635015.8,286047071.3,N
1501635035.6,286047070.5,N
1501635055.5,286047069.5,N
1501635075.3,286047071.5,N
1501635095.1,286047065.8,N
1501635115.9,286047065.3,N
1501635135.7,286047068.0,N
1501635155.5,286047068.2,N
1501635175.4,286047066.7,N
1501635195.2,286047066.8,N
1501635215.0,286047064.4,N
1501635215.9,286047064.4,N
1501635235.8,286047062.7,N
1501635255.6,286047064.7,N
1501635275.4,286047064.7,N
1501635295.3,286047065.2,N
1501635315.1,286047062.5,N
1501635316.0,286047062.5,N
1501635335.8,286047062.8,N
1501635355.6,286047062.6,N
1501635375.5,286047062.4,N
1501635395.3,286047062.7,N
1501635415.1,286047062.2,N
1501635435.9,286047062.9,N
1501635455.7,286047064.6,N
1501635475.5,286047063.8,N
1501635495.4,286047066.6,N
1501635515.2,286047065.0,N
1501635535.0,286047063.9,N
1501635535.9,286047063.9,N
1501635555.8,286047064.6,N
1501635575.6,286047062.4,N
1501635595.4,286047063.1,N
